Madison, WI

10:32 AM CST on November 21, 2019 (GMT -0600)
Dane County Regional-Truax

Weather History for KMSN - June, 2019

Change the Weather History Date:

Monday, June 10, 2019

  Actual Average Record
Temperature  
Mean Temperature 64 °F 66 °F  
Max Temperature 74 °F 77 °F 96 °F (1956)
Min Temperature 53 °F 54 °F 31 °F (1972)
Degree Days  
Heating Degree Days 1 3  
Month to date heating degree days 15 36  
Since 1 June heating degree days 15 36  
Since 1 July heating degree days 7474 7309  
Cooling Degree Days 0 3  
Month to date cooling degree days 25 23  
Year to date cooling degree days 45 53  
Since 1 June cooling degree days 25 23  
Growing Degree Days 14 (Base 50)    
Moisture  
Dew Point 45 °F    
Average Humidity 52    
Maximum Humidity 75    
Minimum Humidity 29    
Precipitation  
Precipitation 0.00 in 0.15 in 2.81 in (1893)
Month to date precipitation 1.05 1.49  
Year to date precipitation 16.86 13.32  
Snow  
Snow 0.00 in 0.00 in 0.00 in (2018)
Month to date snowfall 0.0 0.0  
Since 1 June snowfall 0.0 0.0  
Since 1 July snowfall 57.2 50.9  
Snow Depth 0.00 in    
Sea Level Pressure  
Sea Level Pressure 30.09 in    
Wind  
Wind Speed 10 mph (NW)    
Max Wind Speed 22 mph    
Max Gust Speed 34 mph    
Visibility 10 miles    
Events      
T = Trace of Precipitation, MM = Missing Value Source: NWS Daily Summary

Daily Weather History Graph

Daily Weather History Graph

Search for Another Location

Airport or City:

Astronomy

Jun. 10, 2019 Rise Set
Actual Time 5:17 AM CDT 8:36 PM CDT
Civil Twilight 4:42 AM CDT 9:11 PM CDT
Nautical Twilight 3:56 AM CDT 9:57 PM CDT
Astronomical Twilight 3:00 AM CDT 10:53 PM CDT
Moon 1:14 PM CDT (6/10) 1:43 AM CDT (6/10)
Length of Visible Light 16h 29m
Length of Day
15h 18m
First Quarter, 55% of the Moon is Illuminated
Jun 10
First Quarter
Jun 17
Full
Jun 25
Last Quarter
Jul 2
New
Jul 9
First Quarter

Hourly Weather History & Observations

Time (CDT) Temp. Dew Point Humidity Pressure Visibility Wind Dir Wind Speed Gust Speed Precip Events Conditions
12:10 AM 62.1 °F 55.0 °F 78% 30.00 in 10.0 mi North - - N/A   Overcast
12:53 AM 62.1 °F 54.0 °F 75% 30.00 in 10.0 mi NNW 13.8 mph 23.0 mph N/A   Mostly Cloudy
1:08 AM 61.0 °F 54.0 °F 78% 30.01 in 10.0 mi NW 8.1 mph 19.6 mph N/A   Mostly Cloudy
1:53 AM 60.1 °F 51.1 °F 72% 30.01 in 10.0 mi NW 11.5 mph 25.3 mph N/A   Overcast
2:53 AM 59.0 °F 51.1 °F 75% 30.03 in 10.0 mi NNW 11.5 mph 23.0 mph N/A   Overcast
3:53 AM 57.0 °F 48.9 °F 74% 30.04 in 10.0 mi NW 11.5 mph 23.0 mph N/A   Overcast
4:53 AM 57.0 °F 48.9 °F 74% 30.06 in 10.0 mi NNW 11.5 mph 19.6 mph N/A   Partly Cloudy
5:53 AM 57.0 °F 46.9 °F 69% 30.07 in 10.0 mi NW 11.5 mph - N/A   Scattered Clouds
6:53 AM 57.9 °F 46.0 °F 65% 30.09 in 10.0 mi NW 11.5 mph 21.9 mph N/A   Partly Cloudy
7:53 AM 61.0 °F 45.0 °F 56% 30.10 in 10.0 mi NNW 13.8 mph 24.2 mph N/A   Partly Cloudy
8:53 AM 62.1 °F 43.0 °F 50% 30.12 in 10.0 mi NNW 11.5 mph 28.8 mph N/A   Clear
9:53 AM 64.0 °F 41.0 °F 43% 30.13 in 10.0 mi North 18.4 mph 28.8 mph N/A   Partly Cloudy
10:53 AM 66.9 °F 41.0 °F 39% 30.14 in 10.0 mi NNW 16.1 mph 27.6 mph N/A   Clear
11:53 AM 68.0 °F 39.9 °F 36% 30.14 in 10.0 mi NNW 15.0 mph 28.8 mph N/A   Partly Cloudy
12:53 PM 70.0 °F 41.0 °F 35% 30.14 in 10.0 mi NNW 16.1 mph 27.6 mph N/A   Partly Cloudy
1:53 PM 71.1 °F 43.0 °F 36% 30.13 in 10.0 mi NW 8.1 mph 24.2 mph N/A   Scattered Clouds
2:53 PM 71.1 °F 42.1 °F 35% 30.12 in 10.0 mi NW 12.7 mph 26.5 mph N/A   Mostly Cloudy
3:53 PM 73.9 °F 42.1 °F 32% 30.13 in 10.0 mi NW 15.0 mph 24.2 mph N/A   Mostly Cloudy
4:53 PM 73.9 °F 41.0 °F 30% 30.12 in 10.0 mi NW 9.2 mph 19.6 mph N/A   Scattered Clouds
5:53 PM 73.0 °F 39.9 °F 30% 30.11 in 10.0 mi WNW 9.2 mph 19.6 mph N/A   Partly Cloudy
6:53 PM 72.0 °F 37.0 °F 28% 30.11 in 10.0 mi NW 10.4 mph 18.4 mph N/A   Partly Cloudy
7:53 PM 70.0 °F 39.0 °F 32% 30.12 in 10.0 mi NNW 3.5 mph - N/A   Clear
8:53 PM 63.0 °F 46.0 °F 54% 30.13 in 10.0 mi Calm Calm - N/A   Partly Cloudy
9:53 PM 57.9 °F 46.0 °F 65% 30.14 in 10.0 mi Calm Calm - N/A   Clear
10:53 PM 57.0 °F 44.1 °F 62% 30.14 in 10.0 mi Calm Calm - N/A   Clear
11:53 PM 54.0 °F 45.0 °F 72% 30.14 in 10.0 mi Calm Calm - N/A   Clear